Year,Month,Day,Hour,Minute,Value (Times are PST for temperature in C)
2009,07,19,00,00,14.20
2009,07,19,00,01,14.20
2009,07,19,00,02,14.20
2009,07,19,00,03,14.20
2009,07,19,00,04,14.20
2009,07,19,00,05,14.10
2009,07,19,00,06,14.10
2009,07,19,00,07,14.10
2009,07,19,00,08,14.10
2009,07,19,00,09,14.00
2009,07,19,00,10,14.00
2009,07,19,00,11,14.00
2009,07,19,00,12,13.90
2009,07,19,00,13,13.90
2009,07,19,00,14,13.90
2009,07,19,00,15,13.90
2009,07,19,00,16,13.90
2009,07,19,00,17,13.90
2009,07,19,00,18,13.90
2009,07,19,00,19,13.90
2009,07,19,00,20,13.80
2009,07,19,00,21,13.80
2009,07,19,00,22,13.80
2009,07,19,00,23,13.80
2009,07,19,00,24,13.80
2009,07,19,00,25,13.80
2009,07,19,00,26,13.80
2009,07,19,00,27,13.80
2009,07,19,00,28,13.80
2009,07,19,00,29,13.80
2009,07,19,00,30,13.80
2009,07,19,00,31,13.80
2009,07,19,00,32,13.80
2009,07,19,00,33,13.80
2009,07,19,00,34,13.80
2009,07,19,00,35,13.70
2009,07,19,00,36,13.70
2009,07,19,00,37,13.70
2009,07,19,00,38,13.70
2009,07,19,00,39,13.70
2009,07,19,00,40,13.70
2009,07,19,00,41,13.70
2009,07,19,00,42,13.70
2009,07,19,00,43,13.70
2009,07,19,00,44,13.70
2009,07,19,00,45,13.70
2009,07,19,00,46,13.70
2009,07,19,00,47,13.70
2009,07,19,00,48,13.60
2009,07,19,00,49,13.60
2009,07,19,00,50,13.60
2009,07,19,00,51,13.60
2009,07,19,00,52,13.60
2009,07,19,00,53,13.60
2009,07,19,00,54,13.60
2009,07,19,00,55,13.50
2009,07,19,00,56,13.50
2009,07,19,00,57,13.50
2009,07,19,00,58,13.50
2009,07,19,00,59,13.50
2009,07,19,01,00,13.50
2009,07,19,01,01,13.50
2009,07,19,01,02,13.40
2009,07,19,01,03,13.40
2009,07,19,01,04,13.40
2009,07,19,01,05,13.40
2009,07,19,01,06,13.40
2009,07,19,01,07,13.40
2009,07,19,01,08,13.40
2009,07,19,01,09,13.40
2009,07,19,01,10,13.40
2009,07,19,01,11,13.40
2009,07,19,01,12,13.40
2009,07,19,01,13,13.30
2009,07,19,01,14,13.40
2009,07,19,01,15,13.30
2009,07,19,01,16,13.30
2009,07,19,01,17,13.30
2009,07,19,01,18,13.30
2009,07,19,01,19,13.30
2009,07,19,01,20,13.30
2009,07,19,01,21,13.30
2009,07,19,01,22,13.30
2009,07,19,01,23,13.30
2009,07,19,01,24,13.30
2009,07,19,01,25,13.30
2009,07,19,01,26,13.30
2009,07,19,01,27,13.30
2009,07,19,01,28,13.30
2009,07,19,01,29,13.30
2009,07,19,01,30,13.30
2009,07,19,01,31,13.30
2009,07,19,01,32,13.30
2009,07,19,01,33,13.30
2009,07,19,01,34,13.30
2009,07,19,01,35,13.30
2009,07,19,01,36,13.30
2009,07,19,01,37,13.20
2009,07,19,01,38,13.20
2009,07,19,01,39,13.20
2009,07,19,01,40,13.20
2009,07,19,01,41,13.20
2009,07,19,01,42,13.20
2009,07,19,01,43,13.20
2009,07,19,01,44,13.10
2009,07,19,01,45,13.10
2009,07,19,01,46,13.10
2009,07,19,01,47,13.10
2009,07,19,01,48,13.10
2009,07,19,01,49,13.10
2009,07,19,01,50,13.00
2009,07,19,01,51,13.00
2009,07,19,01,52,12.90
2009,07,19,01,53,12.90
2009,07,19,01,54,12.90
2009,07,19,01,55,12.90
2009,07,19,01,56,12.90
2009,07,19,01,57,12.90
2009,07,19,01,58,12.80
2009,07,19,01,59,12.80
2009,07,19,02,00,12.80
2009,07,19,02,01,12.80
2009,07,19,02,02,12.80
2009,07,19,02,03,12.80
2009,07,19,02,04,12.80
2009,07,19,02,05,12.80
2009,07,19,02,06,12.80
2009,07,19,02,07,12.80
2009,07,19,02,08,12.80
2009,07,19,02,09,12.80
2009,07,19,02,10,12.80
2009,07,19,02,11,12.80
2009,07,19,02,12,12.80
2009,07,19,02,13,12.80
2009,07,19,02,14,12.80
2009,07,19,02,15,12.80
2009,07,19,02,16,12.80
2009,07,19,02,17,12.80
2009,07,19,02,18,12.80
2009,07,19,02,19,12.80
2009,07,19,02,20,12.80
2009,07,19,02,21,12.80
2009,07,19,02,22,12.80
2009,07,19,02,23,12.80
2009,07,19,02,24,12.80
2009,07,19,02,25,12.80
2009,07,19,02,26,12.80
2009,07,19,02,27,12.80
2009,07,19,02,28,12.80
2009,07,19,02,29,12.80
2009,07,19,02,30,12.80
2009,07,19,02,31,12.80
2009,07,19,02,32,12.80
2009,07,19,02,33,12.80
2009,07,19,02,34,12.80
2009,07,19,02,35,12.80
2009,07,19,02,36,12.70
2009,07,19,02,37,12.70
2009,07,19,02,38,12.70
2009,07,19,02,39,12.70
2009,07,19,02,40,12.70
2009,07,19,02,41,12.70
2009,07,19,02,42,12.70
2009,07,19,02,43,12.70
2009,07,19,02,44,12.70
2009,07,19,02,45,12.70
2009,07,19,02,46,12.70
2009,07,19,02,47,12.70
2009,07,19,02,48,12.70
2009,07,19,02,49,12.60
2009,07,19,02,50,12.60
2009,07,19,02,51,12.60
2009,07,19,02,52,12.60
2009,07,19,02,53,12.60
2009,07,19,02,54,12.60
2009,07,19,02,55,12.60
2009,07,19,02,56,12.50
2009,07,19,02,57,12.50
2009,07,19,02,58,12.50
2009,07,19,02,59,12.50
2009,07,19,03,00,12.50
2009,07,19,03,01,12.40
2009,07,19,03,02,12.40
2009,07,19,03,03,12.40
2009,07,19,03,04,12.40
2009,07,19,03,05,12.40
2009,07,19,03,06,12.40
2009,07,19,03,07,12.30
2009,07,19,03,08,12.30
2009,07,19,03,09,12.30
2009,07,19,03,10,12.30
2009,07,19,03,11,12.30
2009,07,19,03,12,12.30
2009,07,19,03,13,12.30
2009,07,19,03,14,12.30
2009,07,19,03,15,12.30
2009,07,19,03,16,12.30
2009,07,19,03,17,12.30
2009,07,19,03,18,12.30
2009,07,19,03,19,12.30
2009,07,19,03,20,12.30
2009,07,19,03,21,12.30
2009,07,19,03,22,12.20
2009,07,19,03,23,12.20
2009,07,19,03,24,12.20
2009,07,19,03,25,12.30
2009,07,19,03,26,12.30
2009,07,19,03,27,12.30
2009,07,19,03,28,12.20
2009,07,19,03,29,12.30
2009,07,19,03,30,12.20
2009,07,19,03,31,12.20
2009,07,19,03,32,12.20
2009,07,19,03,33,12.20
2009,07,19,03,34,12.20
2009,07,19,03,35,12.20
2009,07,19,03,36,12.20
2009,07,19,03,37,12.20
2009,07,19,03,38,12.20
2009,07,19,03,39,12.20
2009,07,19,03,40,12.10
2009,07,19,03,41,12.10
2009,07,19,03,42,12.10
2009,07,19,03,43,12.10
2009,07,19,03,44,12.10
2009,07,19,03,45,12.10
2009,07,19,03,46,12.10
2009,07,19,03,47,12.10
2009,07,19,03,48,12.10
2009,07,19,03,49,12.10
2009,07,19,03,50,12.00
2009,07,19,03,51,12.10
2009,07,19,03,52,12.00
2009,07,19,03,53,12.00
2009,07,19,03,54,12.00
2009,07,19,03,55,12.00
2009,07,19,03,56,12.00
2009,07,19,03,57,12.00
2009,07,19,03,58,12.00
2009,07,19,03,59,12.00
2009,07,19,04,00,12.00
2009,07,19,04,01,12.00
2009,07,19,04,02,12.00
2009,07,19,04,03,12.00
2009,07,19,04,04,11.90
2009,07,19,04,05,11.90
2009,07,19,04,06,11.90
2009,07,19,04,07,11.90
2009,07,19,04,08,11.90
2009,07,19,04,09,11.90
2009,07,19,04,10,11.90
2009,07,19,04,11,11.90
2009,07,19,04,12,11.90
2009,07,19,04,13,11.90
2009,07,19,04,14,11.80
2009,07,19,04,15,11.80
2009,07,19,04,16,11.80
2009,07,19,04,17,11.80
2009,07,19,04,18,11.70
2009,07,19,04,19,11.70
2009,07,19,04,20,11.60
2009,07,19,04,21,11.60
2009,07,19,04,22,11.60
2009,07,19,04,23,11.50
2009,07,19,04,24,11.40
2009,07,19,04,25,11.40
2009,07,19,04,26,11.40
2009,07,19,04,27,11.30
2009,07,19,04,28,11.30
2009,07,19,04,29,11.30
2009,07,19,04,30,11.30
2009,07,19,04,31,11.30
2009,07,19,04,32,11.30
2009,07,19,04,33,11.30
2009,07,19,04,34,11.30
2009,07,19,04,35,11.30
2009,07,19,04,36,11.30
2009,07,19,04,37,11.30
2009,07,19,04,38,11.30
2009,07,19,04,39,11.30
2009,07,19,04,40,11.30
2009,07,19,04,41,11.30
2009,07,19,04,42,11.30
2009,07,19,04,43,11.30
2009,07,19,04,44,11.30
2009,07,19,04,45,11.40
2009,07,19,04,46,11.40
2009,07,19,04,47,11.40
2009,07,19,04,48,11.40
2009,07,19,04,49,11.40
2009,07,19,04,50,11.40
2009,07,19,04,51,11.40
2009,07,19,04,52,11.50
2009,07,19,04,53,11.50
2009,07,19,04,54,11.50
2009,07,19,04,55,11.50
2009,07,19,04,56,11.50
2009,07,19,04,57,11.50
2009,07,19,04,58,11.50
2009,07,19,04,59,11.50
2009,07,19,05,00,11.50
2009,07,19,05,01,11.40
2009,07,19,05,02,11.40
2009,07,19,05,03,11.40
2009,07,19,05,04,11.40
2009,07,19,05,05,11.40
2009,07,19,05,06,11.40
2009,07,19,05,07,11.40
2009,07,19,05,08,11.40
2009,07,19,05,09,11.40
2009,07,19,05,10,11.40
2009,07,19,05,11,11.40
2009,07,19,05,12,11.40
2009,07,19,05,13,11.40
2009,07,19,05,14,11.40
2009,07,19,05,15,11.40
2009,07,19,05,16,11.30
2009,07,19,05,17,11.30
2009,07,19,05,18,11.30
2009,07,19,05,19,11.30
2009,07,19,05,20,11.30
2009,07,19,05,21,11.30
2009,07,19,05,22,11.30
2009,07,19,05,23,11.30
2009,07,19,05,24,11.30
2009,07,19,05,25,11.30
2009,07,19,05,26,11.30
2009,07,19,05,27,11.30
2009,07,19,05,28,11.30
2009,07,19,05,29,11.30
2009,07,19,05,30,11.30
2009,07,19,05,31,11.30
2009,07,19,05,32,11.30
2009,07,19,05,33,11.40
2009,07,19,05,34,11.30
2009,07,19,05,35,11.30
2009,07,19,05,36,11.30
2009,07,19,05,37,11.30
2009,07,19,05,38,11.30
2009,07,19,05,39,11.30
2009,07,19,05,40,11.30
2009,07,19,05,41,11.30
2009,07,19,05,42,11.30
2009,07,19,05,43,11.30
2009,07,19,05,44,11.30
2009,07,19,05,45,11.30
2009,07,19,05,46,11.30
2009,07,19,05,47,11.30
2009,07,19,05,48,11.30
2009,07,19,05,49,11.30
2009,07,19,05,50,11.30
2009,07,19,05,51,11.30
2009,07,19,05,52,11.30
2009,07,19,05,53,11.30
2009,07,19,05,54,11.30
2009,07,19,05,55,11.30
2009,07,19,05,56,11.30
2009,07,19,05,57,11.30
2009,07,19,05,58,11.30
2009,07,19,05,59,11.30
2009,07,19,06,00,11.30
2009,07,19,06,01,11.30
2009,07,19,06,02,11.30
2009,07,19,06,03,11.30
2009,07,19,06,04,11.30
2009,07,19,06,05,11.30
2009,07,19,06,06,11.30
2009,07,19,06,07,11.20
2009,07,19,06,08,11.20
2009,07,19,06,09,11.20
2009,07,19,06,10,11.20
2009,07,19,06,11,11.20
2009,07,19,06,12,11.20
2009,07,19,06,13,11.10
2009,07,19,06,14,11.10
2009,07,19,06,15,11.10
2009,07,19,06,16,11.10
2009,07,19,06,17,11.10
2009,07,19,06,18,11.10
2009,07,19,06,19,11.10
2009,07,19,06,20,11.20
2009,07,19,06,21,11.20
2009,07,19,06,22,11.20
2009,07,19,06,23,11.20
2009,07,19,06,24,11.20
2009,07,19,06,25,11.20
2009,07,19,06,26,11.20
2009,07,19,06,27,11.20
2009,07,19,06,28,11.30
2009,07,19,06,29,11.30
2009,07,19,06,30,11.30
2009,07,19,06,31,11.40
2009,07,19,06,32,11.40
2009,07,19,06,33,11.40
2009,07,19,06,34,11.40
2009,07,19,06,35,11.40
2009,07,19,06,36,11.50
2009,07,19,06,37,11.50
2009,07,19,06,38,11.50
2009,07,19,06,39,11.60
2009,07,19,06,40,11.60
2009,07,19,06,41,11.60
2009,07,19,06,42,11.60
2009,07,19,06,43,11.60
2009,07,19,06,44,11.60
2009,07,19,06,45,11.60
2009,07,19,06,46,11.60
2009,07,19,06,47,11.70
2009,07,19,06,48,11.70
2009,07,19,06,49,11.80
2009,07,19,06,50,11.80
2009,07,19,06,51,11.90
2009,07,19,06,52,11.90
2009,07,19,06,53,12.00
2009,07,19,06,54,12.10
2009,07,19,06,55,12.10
2009,07,19,06,56,12.10
2009,07,19,06,57,12.10
2009,07,19,06,58,12.10
2009,07,19,06,59,12.10
2009,07,19,07,00,12.10
2009,07,19,07,01,12.10
2009,07,19,07,02,12.10
2009,07,19,07,03,12.10
2009,07,19,07,04,12.10
2009,07,19,07,05,12.00
2009,07,19,07,06,12.00
2009,07,19,07,07,12.00
2009,07,19,07,08,12.00
2009,07,19,07,09,12.00
2009,07,19,07,10,12.00
2009,07,19,07,11,12.00
2009,07,19,07,12,11.90
2009,07,19,07,13,11.90
2009,07,19,07,14,11.90
2009,07,19,07,15,11.90
2009,07,19,07,16,11.90
2009,07,19,07,17,11.90
2009,07,19,07,18,11.90
2009,07,19,07,19,11.90
2009,07,19,07,20,11.90
2009,07,19,07,21,11.90
2009,07,19,07,22,12.00
2009,07,19,07,23,12.00
2009,07,19,07,24,12.00
2009,07,19,07,25,12.00
2009,07,19,07,26,12.10
2009,07,19,07,27,12.10
2009,07,19,07,28,12.10
2009,07,19,07,29,12.10
2009,07,19,07,30,12.10
2009,07,19,07,31,12.10
2009,07,19,07,32,12.20
2009,07,19,07,33,12.20
2009,07,19,07,34,12.20
2009,07,19,07,35,12.20
2009,07,19,07,36,12.20
2009,07,19,07,37,12.20
2009,07,19,07,38,12.30
2009,07,19,07,39,12.30
2009,07,19,07,40,12.30
2009,07,19,07,41,12.30
2009,07,19,07,42,12.40
2009,07,19,07,43,12.40
2009,07,19,07,44,12.40
2009,07,19,07,45,12.40
2009,07,19,07,46,12.50
2009,07,19,07,47,12.60
2009,07,19,07,48,12.60
2009,07,19,07,49,12.60
2009,07,19,07,50,12.60
2009,07,19,07,51,12.70
2009,07,19,07,52,12.70
2009,07,19,07,53,12.70
2009,07,19,07,54,12.80
2009,07,19,07,55,12.80
2009,07,19,07,56,12.80
2009,07,19,07,57,12.80
2009,07,19,07,58,12.80
2009,07,19,07,59,12.90
2009,07,19,08,00,12.90
2009,07,19,08,01,12.90
2009,07,19,08,02,12.90
2009,07,19,08,03,12.90
2009,07,19,08,04,12.90
2009,07,19,08,05,13.00
2009,07,19,08,06,13.00
2009,07,19,08,07,13.10
2009,07,19,08,08,13.10
2009,07,19,08,09,13.10
2009,07,19,08,10,13.10
2009,07,19,08,11,13.10
2009,07,19,08,12,13.10
2009,07,19,08,13,13.20
2009,07,19,08,14,13.20
2009,07,19,08,15,13.20
2009,07,19,08,16,13.20
2009,07,19,08,17,13.20
2009,07,19,08,18,13.20
2009,07,19,08,19,13.20
2009,07,19,08,20,13.20
2009,07,19,08,21,13.20
2009,07,19,08,22,13.20
2009,07,19,08,23,13.20
2009,07,19,08,24,13.30
2009,07,19,08,25,13.30
2009,07,19,08,26,13.30
2009,07,19,08,27,13.30
2009,07,19,08,28,13.40
2009,07,19,08,29,13.40
2009,07,19,08,30,13.40
2009,07,19,08,31,13.50
2009,07,19,08,32,13.50
2009,07,19,08,33,13.60
2009,07,19,08,34,13.60
2009,07,19,08,35,13.70
2009,07,19,08,36,13.70
2009,07,19,08,37,13.70
2009,07,19,08,38,13.70
2009,07,19,08,39,13.70
2009,07,19,08,40,13.70
2009,07,19,08,41,13.70
2009,07,19,08,42,13.70
2009,07,19,08,43,13.70
2009,07,19,08,44,13.70
2009,07,19,08,45,13.70
2009,07,19,08,46,13.70
2009,07,19,08,47,13.80
2009,07,19,08,48,13.80
2009,07,19,08,49,13.80
2009,07,19,08,50,13.80
2009,07,19,08,51,13.80
2009,07,19,08,52,13.80
2009,07,19,08,53,13.70
2009,07,19,08,54,13.70
2009,07,19,08,55,13.80
2009,07,19,08,56,13.80
2009,07,19,08,57,13.80
2009,07,19,08,58,13.80
2009,07,19,08,59,13.80
2009,07,19,09,00,13.90
2009,07,19,09,01,13.90
2009,07,19,09,02,14.10
2009,07,19,09,03,14.10
2009,07,19,09,04,14.20
2009,07,19,09,05,14.20
2009,07,19,09,06,14.20
2009,07,19,09,07,14.30
2009,07,19,09,08,14.30
2009,07,19,09,09,14.30
2009,07,19,09,10,14.40
2009,07,19,09,11,14.40
2009,07,19,09,12,14.40
2009,07,19,09,13,14.40
2009,07,19,09,14,14.50
2009,07,19,09,15,14.50
2009,07,19,09,16,14.50
2009,07,19,09,17,14.50
2009,07,19,09,18,14.60
2009,07,19,09,19,14.60
2009,07,19,09,20,14.70
2009,07,19,09,21,14.80
2009,07,19,09,22,15.00
2009,07,19,09,23,15.00
2009,07,19,09,24,15.00
2009,07,19,09,25,15.10
2009,07,19,09,26,15.10
2009,07,19,09,27,15.20
2009,07,19,09,28,15.20
2009,07,19,09,29,15.30
2009,07,19,09,30,15.30
2009,07,19,09,31,15.30
2009,07,19,09,32,15.30
2009,07,19,09,33,15.40
2009,07,19,09,34,15.40
2009,07,19,09,35,15.50
2009,07,19,09,36,15.60
2009,07,19,09,37,15.60
2009,07,19,09,38,15.70
2009,07,19,09,39,15.70
2009,07,19,09,40,15.80
2009,07,19,09,41,15.80
2009,07,19,09,42,15.90
2009,07,19,09,43,16.00
2009,07,19,09,44,16.10
2009,07,19,09,45,16.10
2009,07,19,09,46,16.10
2009,07,19,09,47,16.20
2009,07,19,09,48,16.20
2009,07,19,09,49,16.30
2009,07,19,09,50,16.30
2009,07,19,09,51,16.30
2009,07,19,09,52,16.40
2009,07,19,09,53,16.50
2009,07,19,09,54,16.60
2009,07,19,09,55,16.60
2009,07,19,09,56,16.70
2009,07,19,09,57,16.70
2009,07,19,09,58,16.70
2009,07,19,09,59,16.80
2009,07,19,10,00,16.80
2009,07,19,10,01,16.90
2009,07,19,10,02,16.90
2009,07,19,10,03,16.90
2009,07,19,10,04,17.00
2009,07,19,10,05,17.00
2009,07,19,10,06,17.10
2009,07,19,10,07,17.10
2009,07,19,10,08,17.20
2009,07,19,10,09,17.20
2009,07,19,10,10,17.30
2009,07,19,10,11,17.30
2009,07,19,10,12,17.40
2009,07,19,10,13,17.60
2009,07,19,10,14,17.70
2009,07,19,10,15,17.70
2009,07,19,10,16,17.80
2009,07,19,10,17,17.80
2009,07,19,10,18,17.80
2009,07,19,10,19,17.90
2009,07,19,10,20,17.90
2009,07,19,10,21,17.90
2009,07,19,10,22,17.90
2009,07,19,10,23,17.90
2009,07,19,10,24,17.90
2009,07,19,10,25,17.90
2009,07,19,10,26,18.00
2009,07,19,10,27,18.10
2009,07,19,10,28,18.10
2009,07,19,10,29,18.10
2009,07,19,10,30,18.10
2009,07,19,10,31,18.10
2009,07,19,10,32,18.10
2009,07,19,10,33,18.10
2009,07,19,10,34,18.20
2009,07,19,10,35,18.30
2009,07,19,10,36,18.30
2009,07,19,10,37,18.40
2009,07,19,10,38,18.40
2009,07,19,10,39,18.50
2009,07,19,10,40,18.50
2009,07,19,10,41,18.60
2009,07,19,10,42,18.60
2009,07,19,10,43,18.60
2009,07,19,10,44,18.60
2009,07,19,10,45,18.60
2009,07,19,10,46,18.60
2009,07,19,10,47,18.60
2009,07,19,10,48,18.60
2009,07,19,10,49,18.70
2009,07,19,10,50,18.70
2009,07,19,10,51,18.80
2009,07,19,10,52,18.80
2009,07,19,10,53,18.90
2009,07,19,10,54,18.90
2009,07,19,10,55,18.90
2009,07,19,10,56,18.90
2009,07,19,10,57,18.90
2009,07,19,10,58,18.90
2009,07,19,10,59,18.90
2009,07,19,11,00,18.90
2009,07,19,11,01,18.90
2009,07,19,11,02,19.00
2009,07,19,11,03,19.10
2009,07,19,11,04,19.10
2009,07,19,11,05,19.10
2009,07,19,11,06,19.10
2009,07,19,11,07,19.10
2009,07,19,11,08,19.20
2009,07,19,11,09,19.20
2009,07,19,11,10,19.20
2009,07,19,11,11,19.20
2009,07,19,11,12,19.30
2009,07,19,11,13,19.40
2009,07,19,11,14,19.40
2009,07,19,11,15,19.40
2009,07,19,11,16,19.40
2009,07,19,11,17,19.40
2009,07,19,11,18,19.40
2009,07,19,11,19,19.40
2009,07,19,11,20,19.40
2009,07,19,11,21,19.40
2009,07,19,11,22,19.50
2009,07,19,11,23,19.60
2009,07,19,11,24,19.60
2009,07,19,11,25,19.60
2009,07,19,11,26,19.60
2009,07,19,11,27,19.60
2009,07,19,11,28,19.60
2009,07,19,11,29,19.70
2009,07,19,11,30,19.70
2009,07,19,11,31,19.70
2009,07,19,11,32,19.70
2009,07,19,11,33,19.70
2009,07,19,11,34,19.70
2009,07,19,11,35,19.70
2009,07,19,11,36,19.70
2009,07,19,11,37,19.80
2009,07,19,11,38,19.80
2009,07,19,11,39,19.90
2009,07,19,11,40,19.90
2009,07,19,11,41,20.00
2009,07,19,11,42,20.10
2009,07,19,11,43,20.20
2009,07,19,11,44,20.30
2009,07,19,11,45,20.30
2009,07,19,11,46,20.40
2009,07,19,11,47,20.40
2009,07,19,11,48,20.60
2009,07,19,11,49,20.70
2009,07,19,11,50,20.80
2009,07,19,11,51,20.90
2009,07,19,11,52,21.00
2009,07,19,11,53,21.10
2009,07,19,11,54,21.10
2009,07,19,11,55,21.20
2009,07,19,11,56,21.20
2009,07,19,11,57,21.30
2009,07,19,11,58,21.30
2009,07,19,11,59,21.30
2009,07,19,12,00,21.30
2009,07,19,12,01,21.30
2009,07,19,12,02,21.30
2009,07,19,12,03,21.30
2009,07,19,12,04,21.40
2009,07,19,12,05,21.40
2009,07,19,12,06,21.40
2009,07,19,12,07,21.50
2009,07,19,12,08,21.60
2009,07,19,12,09,21.60
2009,07,19,12,10,21.60
2009,07,19,12,11,21.60
2009,07,19,12,12,21.60
2009,07,19,12,13,21.60
2009,07,19,12,14,21.70
2009,07,19,12,15,21.70
2009,07,19,12,16,21.80
2009,07,19,12,17,21.80
2009,07,19,12,18,21.80
2009,07,19,12,19,21.80
2009,07,19,12,20,21.80
2009,07,19,12,21,21.80
2009,07,19,12,22,21.80
2009,07,19,12,23,21.90
2009,07,19,12,24,21.90
2009,07,19,12,25,22.00
2009,07,19,12,26,22.00
2009,07,19,12,27,22.10
2009,07,19,12,28,22.10
2009,07,19,12,29,22.10
2009,07,19,12,30,22.10
2009,07,19,12,31,22.10
2009,07,19,12,32,22.10
2009,07,19,12,33,22.20
2009,07,19,12,34,22.20
2009,07,19,12,35,22.20
2009,07,19,12,36,22.20
2009,07,19,12,37,22.20
2009,07,19,12,38,22.30
2009,07,19,12,39,22.30
2009,07,19,12,40,22.30
2009,07,19,12,41,22.30
2009,07,19,12,42,22.30
2009,07,19,12,43,22.30
2009,07,19,12,44,22.30
2009,07,19,12,45,22.30
2009,07,19,12,46,22.30
2009,07,19,12,47,22.20
2009,07,19,12,48,22.10
2009,07,19,12,49,22.10
2009,07,19,12,50,22.10
2009,07,19,12,51,22.10
2009,07,19,12,52,22.10
2009,07,19,12,53,22.10
2009,07,19,12,54,22.10
2009,07,19,12,55,22.10
2009,07,19,12,56,22.10
2009,07,19,12,57,22.00
2009,07,19,12,58,22.00
2009,07,19,12,59,22.10
2009,07,19,13,00,22.10
2009,07,19,13,01,22.20
2009,07,19,13,02,22.20
2009,07,19,13,03,22.20
2009,07,19,13,04,22.30
2009,07,19,13,05,22.30
2009,07,19,13,06,22.30
2009,07,19,13,07,22.40
2009,07,19,13,08,22.40
2009,07,19,13,09,22.50
2009,07,19,13,10,22.60
2009,07,19,13,11,22.60
2009,07,19,13,12,22.60
2009,07,19,13,13,22.60
2009,07,19,13,14,22.70
2009,07,19,13,15,22.70
2009,07,19,13,16,22.70
2009,07,19,13,17,22.80
2009,07,19,13,18,22.80
2009,07,19,13,19,22.90
2009,07,19,13,20,23.00
2009,07,19,13,21,23.10
2009,07,19,13,22,23.10
2009,07,19,13,23,23.10
2009,07,19,13,24,23.10
2009,07,19,13,25,23.20
2009,07,19,13,26,23.20
2009,07,19,13,27,23.20
2009,07,19,13,28,23.30
2009,07,19,13,29,23.30
2009,07,19,13,30,23.30
2009,07,19,13,31,23.40
2009,07,19,13,32,23.40
2009,07,19,13,33,23.40
2009,07,19,13,34,23.60
2009,07,19,13,35,23.70
2009,07,19,13,36,23.70
2009,07,19,13,37,23.80
2009,07,19,13,38,23.70
2009,07,19,13,39,23.80
2009,07,19,13,40,23.80
2009,07,19,13,41,23.80
2009,07,19,13,42,23.80
2009,07,19,13,43,23.90
2009,07,19,13,44,23.90
2009,07,19,13,45,23.90
2009,07,19,13,46,24.00
2009,07,19,13,47,24.00
2009,07,19,13,48,24.10
2009,07,19,13,49,24.20
2009,07,19,13,50,24.30
2009,07,19,13,51,24.30
2009,07,19,13,52,24.30
2009,07,19,13,53,24.30
2009,07,19,13,54,24.30
2009,07,19,13,55,24.30
2009,07,19,13,56,24.30
2009,07,19,13,57,24.30
2009,07,19,13,58,24.30
2009,07,19,13,59,24.30
2009,07,19,14,00,24.20
2009,07,19,14,01,24.20
2009,07,19,14,02,24.20
2009,07,19,14,03,24.20
2009,07,19,14,04,24.20
2009,07,19,14,05,24.20
2009,07,19,14,06,24.20
2009,07,19,14,07,24.20
2009,07,19,14,08,24.20
2009,07,19,14,09,24.10
2009,07,19,14,10,24.20
2009,07,19,14,11,24.20
2009,07,19,14,12,24.10
2009,07,19,14,13,24.10
2009,07,19,14,14,24.10
2009,07,19,14,15,24.10
2009,07,19,14,16,24.10
2009,07,19,14,17,24.20
2009,07,19,14,18,24.20
2009,07,19,14,19,24.30
2009,07,19,14,20,24.30
2009,07,19,14,21,24.30
2009,07,19,14,22,24.30
2009,07,19,14,23,24.40
2009,07,19,14,24,24.40
2009,07,19,14,25,24.40
2009,07,19,14,26,24.40
2009,07,19,14,27,24.50
2009,07,19,14,28,24.50
2009,07,19,14,29,24.60
2009,07,19,14,30,24.60
2009,07,19,14,31,24.70
2009,07,19,14,32,24.80
2009,07,19,14,33,24.80
2009,07,19,14,34,24.90
2009,07,19,14,35,24.90
2009,07,19,14,36,24.90
2009,07,19,14,37,24.80
2009,07,19,14,38,24.80
2009,07,19,14,39,24.80
2009,07,19,14,40,24.80
2009,07,19,14,41,24.70
2009,07,19,14,42,24.70
2009,07,19,14,43,24.70
2009,07,19,14,44,24.70
2009,07,19,14,45,24.80
2009,07,19,14,46,24.80
2009,07,19,14,47,24.80
2009,07,19,14,48,24.80
2009,07,19,14,49,24.90
2009,07,19,14,50,24.90
2009,07,19,14,51,24.90
2009,07,19,14,52,24.90
2009,07,19,14,53,24.90
2009,07,19,14,54,24.90
2009,07,19,14,55,24.90
2009,07,19,14,56,25.00
2009,07,19,14,57,25.00
2009,07,19,14,58,24.90
2009,07,19,14,59,24.90
2009,07,19,15,00,24.90
2009,07,19,15,01,24.90
2009,07,19,15,02,24.90
2009,07,19,15,03,25.00
2009,07,19,15,04,25.10
2009,07,19,15,05,25.20
2009,07,19,15,06,25.30
2009,07,19,15,07,25.20
2009,07,19,15,08,25.20
2009,07,19,15,09,25.20
2009,07,19,15,10,25.30
2009,07,19,15,11,25.30
2009,07,19,15,12,25.30
2009,07,19,15,13,25.40
2009,07,19,15,14,25.40
2009,07,19,15,15,25.40
2009,07,19,15,16,25.40
2009,07,19,15,17,25.40
2009,07,19,15,18,25.30
2009,07,19,15,19,25.30
2009,07,19,15,21,25.30
2009,07,19,15,22,25.30
2009,07,19,15,23,25.20
2009,07,19,15,24,25.20
2009,07,19,15,25,25.10
2009,07,19,15,26,25.00
2009,07,19,15,27,24.90
2009,07,19,15,28,24.90
2009,07,19,15,29,24.90
2009,07,19,15,30,24.90
2009,07,19,15,31,25.00
2009,07,19,15,32,25.00
2009,07,19,15,33,25.00
2009,07,19,15,34,25.00
2009,07,19,15,35,24.90
2009,07,19,15,36,25.00
2009,07,19,15,37,25.10
2009,07,19,15,38,25.10
2009,07,19,15,39,25.10
2009,07,19,15,40,25.10
2009,07,19,15,41,25.10
2009,07,19,15,42,25.10
2009,07,19,15,43,25.00
2009,07,19,15,44,25.00
2009,07,19,15,45,25.10
2009,07,19,15,46,25.10
2009,07,19,15,47,25.10
2009,07,19,15,48,25.10
2009,07,19,15,49,25.10
2009,07,19,15,50,25.00
2009,07,19,15,51,25.10
2009,07,19,15,52,25.10
2009,07,19,15,53,25.10
2009,07,19,15,54,25.00
2009,07,19,15,55,25.10
2009,07,19,15,56,25.10
2009,07,19,15,57,25.10
2009,07,19,15,58,25.10
2009,07,19,15,59,25.10
2009,07,19,16,00,25.20
2009,07,19,16,01,25.20
2009,07,19,16,02,25.20
2009,07,19,16,03,25.20
2009,07,19,16,04,25.20
2009,07,19,16,05,25.20
2009,07,19,16,06,25.20
2009,07,19,16,07,25.10
2009,07,19,16,08,25.10
2009,07,19,16,09,25.00
2009,07,19,16,10,25.00
2009,07,19,16,11,24.90
2009,07,19,16,12,24.90
2009,07,19,16,13,24.90
2009,07,19,16,14,24.80
2009,07,19,16,15,24.80
2009,07,19,16,16,24.80
2009,07,19,16,17,24.90
2009,07,19,16,18,24.90
2009,07,19,16,19,24.80
2009,07,19,16,20,24.80
2009,07,19,16,21,24.80
2009,07,19,16,22,24.90
2009,07,19,16,23,24.90
2009,07,19,16,24,24.80
2009,07,19,16,25,24.80
2009,07,19,16,26,24.70
2009,07,19,16,27,24.60
2009,07,19,16,28,24.60
2009,07,19,16,29,24.70
2009,07,19,16,30,24.70
2009,07,19,16,31,24.70
2009,07,19,16,32,24.70
2009,07,19,16,33,24.70
2009,07,19,16,34,24.80
2009,07,19,16,35,24.80
2009,07,19,16,36,24.70
2009,07,19,16,37,24.80
2009,07,19,16,38,24.70
2009,07,19,16,39,24.70
2009,07,19,16,40,24.60
2009,07,19,16,41,24.60
2009,07,19,16,42,24.70
2009,07,19,16,43,24.70
2009,07,19,16,44,24.70
2009,07,19,16,45,24.80
2009,07,19,16,46,24.80
2009,07,19,16,47,24.80
2009,07,19,16,48,24.80
2009,07,19,16,49,24.80
2009,07,19,16,50,24.80
2009,07,19,16,51,24.80
2009,07,19,16,52,24.80
2009,07,19,16,53,24.80
2009,07,19,16,54,24.80
2009,07,19,16,55,24.80
2009,07,19,16,56,24.90
2009,07,19,16,57,24.90
2009,07,19,16,58,24.90
2009,07,19,16,59,24.90
2009,07,19,17,00,24.90
2009,07,19,17,01,24.90
2009,07,19,17,02,25.00
2009,07,19,17,03,25.10
2009,07,19,17,04,25.10
2009,07,19,17,05,25.10
2009,07,19,17,06,25.20
2009,07,19,17,07,25.20
2009,07,19,17,08,25.20
2009,07,19,17,09,25.20
2009,07,19,17,10,25.30
2009,07,19,17,11,25.30
2009,07,19,17,12,25.30
2009,07,19,17,13,25.30
2009,07,19,17,14,25.30
2009,07,19,17,15,25.40
2009,07,19,17,16,25.40
2009,07,19,17,17,25.60
2009,07,19,17,18,25.70
2009,07,19,17,19,25.70
2009,07,19,17,20,25.80